Flag for U.S.A. Weather past 2 weeks in Fort Collins, Colorado, U.S.A.

Now
57 °F

Sunny.


Feels Like: 56 °F
Forecast: 29 / 54 °F
Wind: 6 mph from Northeast

Location: Fort Collins-Loveland Municipal Airport

Current Time: Jan 25, 2015 at 4:31:17 PM

Latest Report: Jan 25, 2015 at 3:55 PM


Visibility: 10 mi

Pressure: 30.11 "Hg

Humidity: 33%

Dew point: 28 °F

Location of Fort CollinsLocation

Historic Weather in Fort Collins — Graph

°F

Fort Collins temperature yesterday

Maximum temperature yesterday: 54 °F (at 3:35 PM)
Minimum temperature yesterday: 23 °F (at 7:35 AM)
Average temperature yesterday: 36 °F

Past Weeks' High & Low Weather Summary

 TemperatureHumidityPressure
High61 °F (Jan 25, 2:35 PM)100% (Jan 13, 12:15 AM)30.39 "Hg (Jan 13, 12:15 AM)
Low12 °F (Jan 22, 6:15 AM)22% (Jan 16, 6:15 PM)29.83 "Hg (Jan 16, 5:55 PM)
Average33 °F64%30.15 "Hg
* Reported Jan 10 3:15 PM — Jan 25 3:35 PM, Fort Collins, Weather by CustomWeather, © 2014

Note: Actual official high and low records may vary slightly from our data, if they occured in-between our weather recording intervals... More about our weather records

Advertising

Fort Collins weather history for previous 24 hours

 ConditionsComfort  
Time TempWeatherWind HumidityBarometerVisibility
3:35 PM
Jan 25
57 °FSunny.5 mph33%30.10 "Hg10 mi
3:15 PM61 °FSunny.6 mph29%30.10 "Hg10 mi
2:35 PM61 °FSunny.No wind27%30.09 "Hg10 mi
2:15 PM59 °FSunny.7 mph31%30.09 "Hg10 mi
1:55 PM59 °FSunny.10 mph31%30.09 "Hg10 mi
1:35 PM59 °FSunny.8 mph34%30.10 "Hg10 mi
1:15 PM57 °FSunny.12 mph39%30.10 "Hg10 mi
12:55 PM57 °FSunny.9 mph36%30.11 "Hg10 mi
12:35 PM55 °FSunny.10 mph36%30.13 "Hg10 mi
12:15 PM54 °FSunny.8 mph41%30.14 "Hg10 mi
11:55 AM52 °FSunny.7 mph44%30.15 "Hg10 mi
11:35 AM48 °FSunny.7 mph50%30.16 "Hg10 mi
11:15 AM46 °FSunny.7 mph53%30.18 "Hg10 mi
10:55 AM45 °FSunny.5 mph57%30.18 "Hg10 mi
10:35 AM45 °FSunny.No wind53%30.19 "Hg10 mi
10:15 AM45 °FSunny.No wind57%30.18 "Hg10 mi
9:55 AM39 °FSunny.No wind65%30.18 "Hg10 mi
9:35 AM37 °FSunny.6 mph75%30.17 "Hg10 mi
9:15 AM36 °FPassing clouds.6 mph75%30.16 "Hg10 mi
8:55 AM34 °FPassing clouds.5 mph75%30.16 "Hg10 mi
8:35 AM30 °FScattered clouds.3 mph86%30.17 "Hg10 mi
8:15 AM30 °FPassing clouds.5 mph80%30.17 "Hg10 mi
7:55 AM30 °FSunny.No wind80%30.16 "Hg10 mi
7:35 AM32 °FSunny.No wind75%30.16 "Hg10 mi
7:15 AM32 °FSunny.5 mph75%30.16 "Hg10 mi
6:55 AM28 °FClear.No wind74%30.16 "Hg10 mi
6:35 AM30 °FClear.7 mph80%30.15 "Hg10 mi
6:15 AM28 °FClear.5 mph80%30.16 "Hg10 mi
5:55 AM28 °FClear.8 mph80%30.15 "Hg10 mi
5:35 AM27 °FClear.8 mph80%30.15 "Hg10 mi
5:15 AM28 °FClear.8 mph80%30.15 "Hg10 mi
4:55 AM30 °FClear.6 mph80%30.15 "Hg10 mi
4:35 AM28 °FClear.6 mph74%30.15 "Hg10 mi
4:15 AM30 °FClear.5 mph80%30.16 "Hg10 mi
3:55 AM30 °FClear.6 mph80%30.15 "Hg10 mi
3:35 AM32 °FClear.7 mph87%30.14 "Hg10 mi
3:15 AM30 °FClear.8 mph86%30.13 "Hg10 mi
2:55 AM28 °FClear.6 mph86%30.14 "Hg10 mi
2:35 AM28 °FClear.6 mph80%30.14 "Hg10 mi
2:15 AM28 °FClear.9 mph80%30.13 "Hg10 mi
1:55 AM28 °FClear.8 mph80%30.13 "Hg10 mi
1:35 AM30 °FClear.8 mph80%30.12 "Hg10 mi
1:15 AM30 °FClear.7 mph80%30.13 "Hg10 mi
12:55 AM30 °FClear.7 mph80%30.13 "Hg10 mi
12:35 AM32 °FClear.7 mph80%30.14 "Hg10 mi
12:15 AM32 °FClear.6 mph75%30.14 "Hg10 mi
11:55 PM
Jan 24
36 °FClear.8 mph65%30.14 "Hg10 mi
11:35 PM39 °FClear.12 mph52%30.13 "Hg10 mi
11:15 PM43 °FClear.13 mph49%30.13 "Hg10 mi
10:55 PM45 °FClear.15 mph46%30.14 "Hg10 mi
10:35 PM45 °FClear.15 mph46%30.14 "Hg10 mi
10:15 PM43 °FClear.7 mph49%30.13 "Hg10 mi
9:55 PM43 °FClear.6 mph49%30.11 "Hg10 mi
9:15 PM43 °FClear.8 mph49%30.11 "Hg10 mi
8:35 PM43 °FClear.10 mph49%30.10 "Hg10 mi
7:55 PM45 °FClear.10 mph42%30.09 "Hg10 mi
7:35 PM45 °FClear.14 mph42%30.09 "Hg10 mi
7:15 PM45 °FClear.14 mph42%30.08 "Hg10 mi
6:55 PM45 °FClear.15 mph46%30.07 "Hg10 mi
6:35 PM45 °FClear.13 mph42%30.07 "Hg10 mi
6:15 PM46 °FClear.13 mph43%30.05 "Hg10 mi
5:55 PM45 °FClear.9 mph46%30.05 "Hg10 mi
5:35 PM45 °FClear.12 mph39%30.03 "Hg10 mi
5:15 PM45 °FClear.No wind39%30.01 "Hg10 mi
4:55 PM46 °FSunny.6 mph37%30.00 "Hg10 mi
4:35 PM48 °FSunny.8 mph40%29.99 "Hg10 mi
4:15 PM50 °FSunny.9 mph40%29.98 "Hg10 mi
Weather by CustomWeather, © 2014

See weather overviewHow to use our weather pages